Retour au catalogue

STARLINK-31878

ActifCommunicationsVLEO
NORAD 60031·PAYLOAD·🇺🇸 United States

Lancé Jun 8, 2024 depuis Cape Canaveral Space Force Station

Loading…

Prochains Passages (prochaines 24 heures)

TLE

FraisSource: CelesTrak SupGP

Époque: Sep 14, 2026, 14:25 UTC

1 60031C 24111R   26257.60118056 -.00021275  00000+0 -62933-3 0  2579
2 60031  53.1574 222.9887 0001636 105.3874 193.8529 15.34363032    17

Suivez STARLINK-31878 en temps réel avec AllMySat

Download on the App Store